Time,TemperatureF,DewpointF,PressureIn,WindDirection,WindDirectionDegrees,WindSpeedMPH,WindSpeedGustMPH,Humidity,HourlyPrecipIn,Conditions,Clouds,dailyrainin,SolarRadiationWatts/m^2,SoftwareType,DateUTC
2013-01-30 00:05:00,45.0,37.6,30.32,WNW,288,1.0,2.0,75,0.00,,,0.00,0,Wunderground v.1.15,2013-01-29 23:05:00,
2013-01-30 00:15:00,45.0,37.6,30.32,WNW,288,1.0,1.0,75,0.00,,,0.00,0,Wunderground v.1.15,2013-01-29 23:15:00,
2013-01-30 00:26:00,44.9,37.5,30.32,WNW,288,0.0,1.0,75,0.00,,,0.00,0,Wunderground v.1.15,2013-01-29 23:26:00,
2013-01-30 00:35:00,44.7,37.6,30.32,WNW,293,1.0,1.0,76,0.00,,,0.00,0,Wunderground v.1.15,2013-01-29 23:35:00,
2013-01-30 00:41:00,44.6,37.5,30.32,WNW,293,1.0,1.0,76,0.00,,,0.00,0,Wunderground v.1.15,2013-01-29 23:41:00,
2013-01-30 00:55:00,44.2,37.1,30.32,West,265,1.0,3.0,76,0.00,,,0.00,0,Wunderground v.1.15,2013-01-29 23:55:00,
2013-01-30 01:06:00,43.9,36.5,30.31,West,267,3.0,3.0,75,0.00,,,0.00,0,Wunderground v.1.15,2013-01-30 00:06:00,
2013-01-30 01:15:00,44.0,36.6,30.31,West,267,1.0,3.0,75,0.00,,,0.00,0,Wunderground v.1.15,2013-01-30 00:15:00,
2013-01-30 01:21:00,44.0,36.9,30.31,West,267,1.0,3.0,76,0.00,,,0.00,0,Wunderground v.1.15,2013-01-30 00:21:00,
2013-01-30 01:30:00,43.9,36.8,30.31,West,267,2.0,3.0,76,0.00,,,0.00,0,Wunderground v.1.15,2013-01-30 00:30:00,
2013-01-30 01:36:00,43.4,36.3,30.31,WNW,288,2.0,4.0,76,0.00,,,0.00,0,Wunderground v.1.15,2013-01-30 00:36:00,
2013-01-30 01:50:00,43.7,36.3,30.31,WNW,286,1.0,1.0,75,0.00,,,0.00,0,Wunderground v.1.15,2013-01-30 00:50:00,
2013-01-30 02:05:00,43.8,36.4,30.30,WNW,286,0.0,1.0,75,0.00,,,0.00,0,Wunderground v.1.15,2013-01-30 01:05:00,
2013-01-30 02:16:00,43.6,36.2,30.30,West,269,1.0,2.0,75,0.00,,,0.00,0,Wunderground v.1.15,2013-01-30 01:16:00,
2013-01-30 02:31:00,43.0,35.6,30.30,WNW,290,3.0,3.0,75,0.00,,,0.00,0,Wunderground v.1.15,2013-01-30 01:31:00,
2013-01-30 02:46:00,43.2,35.8,30.30,WNW,290,1.0,1.0,75,0.00,,,0.00,0,Wunderground v.1.15,2013-01-30 01:46:00,
2013-01-30 03:05:00,43.1,35.7,30.30,WNW,290,0.0,0.0,75,0.00,,,0.00,0,Wunderground v.1.15,2013-01-30 02:05:00,
2013-01-30 03:11:00,43.1,35.7,30.30,WNW,290,0.0,2.0,75,0.00,,,0.00,0,Wunderground v.1.15,2013-01-30 02:11:00,
2013-01-30 03:20:00,43.0,35.6,30.29,WNW,290,0.0,1.0,75,0.00,,,0.00,0,Wunderground v.1.15,2013-01-30 02:20:00,
2013-01-30 03:25:00,42.9,35.5,30.29,WNW,290,0.0,2.0,75,0.00,,,0.00,0,Wunderground v.1.15,2013-01-30 02:25:00,
2013-01-30 03:35:00,43.1,36.0,30.28,WNW,290,1.0,1.0,76,0.00,,,0.00,0,Wunderground v.1.15,2013-01-30 02:35:00,
2013-01-30 03:40:00,43.1,36.0,30.29,WNW,290,0.0,1.0,76,0.00,,,0.00,0,Wunderground v.1.15,2013-01-30 02:40:00,
2013-01-30 03:50:00,42.9,35.5,30.29,West,265,2.0,2.0,75,0.00,,,0.00,0,Wunderground v.1.15,2013-01-30 02:50:00,
2013-01-30 04:06:00,43.3,35.9,30.29,West,263,1.0,1.0,75,0.00,,,0.00,0,Wunderground v.1.15,2013-01-30 03:06:00,
2013-01-30 04:15:00,43.6,35.9,30.28,West,274,2.0,4.0,74,0.00,,,0.00,0,Wunderground v.1.15,2013-01-30 03:15:00,
2013-01-30 04:25:00,44.0,35.9,30.28,East,83,1.0,2.0,73,0.00,,,0.00,0,Wunderground v.1.15,2013-01-30 03:25:00,
2013-01-30 04:35:00,44.0,35.9,30.28,WNW,303,1.0,1.0,73,0.00,,,0.00,0,Wunderground v.1.15,2013-01-30 03:35:00,
2013-01-30 04:51:00,44.0,35.9,30.28,WNW,292,2.0,3.0,73,0.00,,,0.00,0,Wunderground v.1.15,2013-01-30 03:51:00,
2013-01-30 05:06:00,44.2,35.7,30.28,WNW,283,1.0,1.0,72,0.00,,,0.00,0,Wunderground v.1.15,2013-01-30 04:06:00,
2013-01-30 05:20:00,43.8,35.7,30.28,WNW,299,1.0,1.0,73,0.00,,,0.00,0,Wunderground v.1.15,2013-01-30 04:20:00,
2013-01-30 05:35:00,43.6,35.5,30.28,WNW,303,1.0,1.0,73,0.00,,,0.00,0,Wunderground v.1.15,2013-01-30 04:35:00,
2013-01-30 05:50:00,43.6,35.9,30.28,NW,311,1.0,1.0,74,0.00,,,0.00,0,Wunderground v.1.15,2013-01-30 04:50:00,
2013-01-30 06:05:00,43.6,35.9,30.28,NW,311,1.0,1.0,74,0.00,,,0.00,0,Wunderground v.1.15,2013-01-30 05:05:00,
2013-01-30 06:15:00,43.8,36.0,30.28,WNW,290,2.0,2.0,74,0.00,,,0.00,0,Wunderground v.1.15,2013-01-30 05:15:00,
2013-01-30 06:21:00,43.9,36.1,30.28,WNW,290,1.0,2.0,74,0.00,,,0.00,0,Wunderground v.1.15,2013-01-30 05:21:00,
2013-01-30 06:35:00,44.0,36.2,30.28,WNW,290,0.0,0.0,74,0.00,,,0.00,0,Wunderground v.1.15,2013-01-30 05:35:00,
2013-01-30 06:50:00,44.2,36.4,30.28,NW,304,2.0,2.0,74,0.00,,,0.00,0,Wunderground v.1.15,2013-01-30 05:50:00,
2013-01-30 07:05:00,44.5,36.7,30.28,West,276,2.0,2.0,74,0.00,,,0.00,0,Wunderground v.1.15,2013-01-30 06:05:00,
2013-01-30 07:15:00,44.7,36.6,30.29,WNW,301,2.0,3.0,73,0.00,,,0.00,0,Wunderground v.1.15,2013-01-30 06:15:00,
2013-01-30 07:30:00,45.1,36.6,30.29,West,281,1.0,1.0,72,0.00,,,0.00,0,Wunderground v.1.15,2013-01-30 06:30:00,
2013-01-30 07:40:00,45.0,36.5,30.29,West,281,1.0,1.0,72,0.00,,,0.00,0,Wunderground v.1.15,2013-01-30 06:40:00,
2013-01-30 07:45:00,45.0,36.5,30.29,West,281,0.0,1.0,72,0.00,,,0.00,0,Wunderground v.1.15,2013-01-30 06:45:00,
2013-01-30 07:55:00,44.8,36.3,30.29,West,281,0.0,1.0,72,0.00,,,0.00,0,Wunderground v.1.15,2013-01-30 06:55:00,
2013-01-30 08:05:00,44.8,36.3,30.29,West,280,2.0,2.0,72,0.00,,,0.00,7,Wunderground v.1.15,2013-01-30 07:05:00,
2013-01-30 08:15:00,45.0,36.5,30.29,West,280,1.0,1.0,72,0.00,,,0.00,12,Wunderground v.1.15,2013-01-30 07:15:00,
2013-01-30 08:26:00,45.0,36.5,30.29,WNW,285,1.0,3.0,72,0.00,,,0.00,54,Wunderground v.1.15,2013-01-30 07:26:00,
2013-01-30 08:35:00,45.2,37.1,30.30,WNW,284,1.0,3.0,73,0.00,,,0.00,95,Wunderground v.1.15,2013-01-30 07:35:00,
2013-01-30 08:46:00,45.7,37.5,30.30,WNW,284,1.0,2.0,73,0.00,,,0.00,125,Wunderground v.1.15,2013-01-30 07:46:00,
2013-01-30 09:05:00,47.4,38.8,30.29,West,280,1.0,1.0,72,0.00,,,0.00,181,Wunderground v.1.15,2013-01-30 08:05:00,
2013-01-30 09:11:00,48.2,39.9,30.30,West,281,1.0,1.0,73,0.00,,,0.00,195,Wunderground v.1.15,2013-01-30 08:11:00,
2013-01-30 09:20:00,49.3,40.7,30.30,West,281,0.0,0.0,72,0.00,,,0.00,218,Wunderground v.1.15,2013-01-30 08:20:00,
2013-01-30 09:25:00,49.9,40.9,30.29,West,281,0.0,0.0,71,0.00,,,0.00,241,Wunderground v.1.15,2013-01-30 08:25:00,
2013-01-30 09:35:00,51.2,42.1,30.29,West,281,0.0,0.0,71,0.00,,,0.00,258,Wunderground v.1.15,2013-01-30 08:35:00,
2013-01-30 09:50:00,52.8,42.5,30.29,West,281,0.0,0.0,68,0.00,,,0.00,308,Wunderground v.1.15,2013-01-30 08:50:00,
2013-01-30 10:05:00,55.7,44.5,30.29,West,281,0.0,0.0,66,0.00,,,0.00,306,Wunderground v.1.15,2013-01-30 09:05:00,
2013-01-30 10:15:00,57.0,44.5,30.29,West,281,0.0,0.0,63,0.00,,,0.00,374,Wunderground v.1.15,2013-01-30 09:15:00,
2013-01-30 10:25:00,58.5,43.8,30.29,West,270,1.0,1.0,58,0.00,,,0.00,401,Wunderground v.1.15,2013-01-30 09:25:00,
2013-01-30 10:35:00,60.3,44.5,30.29,WSW,246,1.0,1.0,56,0.00,,,0.00,427,Wunderground v.1.15,2013-01-30 09:35:00,
2013-01-30 10:45:00,61.7,45.4,30.30,SSW,192,1.0,1.0,55,0.00,,,0.00,455,Wunderground v.1.15,2013-01-30 09:45:00,
2013-01-30 10:51:00,62.3,44.9,30.30,South,190,1.0,1.0,53,0.00,,,0.00,464,Wunderground v.1.15,2013-01-30 09:51:00,
2013-01-30 11:10:00,63.2,44.8,30.30,NE,53,1.0,3.0,51,0.00,,,0.00,496,Wunderground v.1.15,2013-01-30 10:10:00,
2013-01-30 11:20:00,63.2,45.3,30.30,ENE,57,1.0,1.0,52,0.00,,,0.00,520,Wunderground v.1.15,2013-01-30 10:20:00,
2013-01-30 11:31:00,64.0,46.5,30.30,SE,134,2.0,2.0,53,0.00,,,0.00,531,Wunderground v.1.15,2013-01-30 10:31:00,
2013-01-30 11:45:00,65.4,47.3,30.30,South,176,2.0,3.0,52,0.00,,,0.00,557,Wunderground v.1.15,2013-01-30 10:45:00,
2013-01-30 11:55:00,65.6,48.0,30.30,South,169,2.0,4.0,53,0.00,,,0.00,573,Wunderground v.1.15,2013-01-30 10:55:00,
2013-01-30 12:20:00,65.2,47.6,30.29,SSW,209,3.0,6.0,53,0.00,,,0.00,573,Wunderground v.1.15,2013-01-30 11:20:00,
2013-01-30 12:31:00,64.6,48.1,30.29,South,173,5.0,5.0,55,0.00,,,0.00,599,Wunderground v.1.15,2013-01-30 11:31:00,
2013-01-30 12:45:00,64.2,48.6,30.28,SW,216,5.0,5.0,57,0.00,,,0.00,608,Wunderground v.1.15,2013-01-30 11:45:00,
2013-01-30 13:05:00,64.7,48.6,30.28,ESE,115,5.0,5.0,56,0.00,,,0.00,610,Wunderground v.1.15,2013-01-30 12:05:00,
2013-01-30 13:15:00,65.0,47.9,30.27,SSW,200,5.0,6.0,54,0.00,,,0.00,628,Wunderground v.1.15,2013-01-30 12:15:00,
2013-01-30 13:25:00,65.1,47.0,30.27,South,179,5.0,5.0,52,0.00,,,0.00,592,Wunderground v.1.15,2013-01-30 12:25:00,
2013-01-30 13:35:00,65.1,47.0,30.27,SSW,194,5.0,5.0,52,0.00,,,0.00,330,Wunderground v.1.15,2013-01-30 12:35:00,
2013-01-30 13:45:00,64.7,47.7,30.26,SW,229,4.0,4.0,54,0.00,,,0.00,633,Wunderground v.1.15,2013-01-30 12:45:00,
2013-01-30 13:55:00,64.8,47.3,30.26,West,275,4.0,5.0,53,0.00,,,0.00,610,Wunderground v.1.15,2013-01-30 12:55:00,
2013-01-30 14:10:00,64.3,46.3,30.26,SW,216,6.0,6.0,52,0.00,,,0.00,559,Wunderground v.1.15,2013-01-30 13:10:00,
2013-01-30 14:25:00,64.0,47.5,30.25,SSW,206,6.0,6.0,55,0.00,,,0.00,489,Wunderground v.1.15,2013-01-30 13:25:00,
2013-01-30 14:35:00,63.3,47.8,30.25,SSW,203,6.0,10.0,57,0.00,,,0.00,438,Wunderground v.1.15,2013-01-30 13:35:00,
2013-01-30 14:50:00,62.5,48.4,30.25,SSE,150,5.0,5.0,60,0.00,,,0.00,527,Wunderground v.1.15,2013-01-30 13:50:00,
2013-01-30 15:05:00,62.7,49.5,30.24,SSW,192,5.0,5.0,62,0.00,,,0.00,482,Wunderground v.1.15,2013-01-30 14:05:00,
2013-01-30 15:11:00,62.7,49.1,30.24,SSW,202,4.0,6.0,61,0.00,,,0.00,397,Wunderground v.1.15,2013-01-30 14:11:00,
2013-01-30 15:20:00,62.4,48.8,30.24,SSW,193,5.0,5.0,61,0.00,,,0.00,506,Wunderground v.1.15,2013-01-30 14:20:00,
2013-01-30 15:30:00,62.3,49.5,30.23,SSW,195,5.0,5.0,63,0.00,,,0.00,448,Wunderground v.1.15,2013-01-30 14:30:00,
2013-01-30 15:41:00,62.1,49.4,30.24,South,169,4.0,4.0,63,0.00,,,0.00,237,Wunderground v.1.15,2013-01-30 14:41:00,
2013-01-30 15:56:00,62.0,49.3,30.24,South,171,5.0,6.0,63,0.00,,,0.00,295,Wunderground v.1.15,2013-01-30 14:56:00,
2013-01-30 16:05:00,61.5,49.6,30.23,SSE,165,5.0,5.0,65,0.00,,,0.00,399,Wunderground v.1.15,2013-01-30 15:05:00,
2013-01-30 16:15:00,61.2,49.7,30.24,SSW,202,5.0,7.0,66,0.00,,,0.00,234,Wunderground v.1.15,2013-01-30 15:15:00,
2013-01-30 16:26:00,60.8,50.2,30.24,South,173,5.0,6.0,68,0.00,,,0.00,257,Wunderground v.1.15,2013-01-30 15:26:00,
2013-01-30 16:40:00,60.1,50.3,30.24,South,188,5.0,5.0,70,0.00,,,0.00,171,Wunderground v.1.15,2013-01-30 15:40:00,
2013-01-30 16:55:00,59.0,50.0,30.24,SW,226,5.0,5.0,72,0.00,,,0.00,146,Wunderground v.1.15,2013-01-30 15:55:00,
2013-01-30 17:11:00,58.2,50.0,30.24,SW,225,4.0,4.0,74,0.00,,,0.00,100,Wunderground v.1.15,2013-01-30 16:11:00,
2013-01-30 17:26:00,57.7,49.8,30.25,South,190,1.0,1.0,75,0.00,,,0.00,46,Wunderground v.1.15,2013-01-30 16:26:00,
2013-01-30 17:40:00,57.3,49.8,30.26,SW,223,0.0,0.0,76,0.00,,,0.00,25,Wunderground v.1.15,2013-01-30 16:40:00,
2013-01-30 17:50:00,56.9,49.4,30.26,SW,224,0.0,0.0,76,0.00,,,0.00,16,Wunderground v.1.15,2013-01-30 16:50:00,
2013-01-30 18:05:00,56.4,48.9,30.26,SW,228,1.0,1.0,76,0.00,,,0.00,0,Wunderground v.1.15,2013-01-30 17:05:00,
2013-01-30 18:15:00,55.6,48.5,30.26,WNW,294,1.0,1.0,77,0.00,,,0.00,0,Wunderground v.1.15,2013-01-30 17:15:00,
2013-01-30 18:30:00,55.0,48.3,30.26,SE,145,1.0,1.0,78,0.00,,,0.00,0,Wunderground v.1.15,2013-01-30 17:30:00,
2013-01-30 18:45:00,54.3,47.9,30.26,West,260,1.0,2.0,79,0.00,,,0.00,0,Wunderground v.1.15,2013-01-30 17:45:00,
2013-01-30 18:55:00,53.7,47.3,30.26,West,260,1.0,1.0,79,0.00,,,0.00,0,Wunderground v.1.15,2013-01-30 17:55:00,
2013-01-30 19:05:00,53.3,47.3,30.26,West,260,0.0,0.0,80,0.00,,,0.00,0,Wunderground v.1.15,2013-01-30 18:05:00,
2013-01-30 19:15:00,53.0,47.0,30.27,West,260,0.0,0.0,80,0.00,,,0.00,0,Wunderground v.1.15,2013-01-30 18:15:00,
2013-01-30 19:30:00,52.2,46.5,30.27,West,260,1.0,1.0,81,0.00,,,0.00,0,Wunderground v.1.15,2013-01-30 18:30:00,
2013-01-30 19:45:00,51.6,46.3,30.27,SW,227,1.0,1.0,82,0.00,,,0.00,0,Wunderground v.1.15,2013-01-30 18:45:00,
2013-01-30 19:55:00,51.5,46.2,30.27,SW,227,0.0,0.0,82,0.00,,,0.00,0,Wunderground v.1.15,2013-01-30 18:55:00,
2013-01-30 20:10:00,51.2,45.9,30.27,NNW,347,1.0,4.0,82,0.00,,,0.00,0,Wunderground v.1.15,2013-01-30 19:10:00,
2013-01-30 20:16:00,51.0,46.0,30.27,NE,41,1.0,4.0,83,0.00,,,0.00,0,Wunderground v.1.15,2013-01-30 19:16:00,
2013-01-30 20:25:00,50.9,45.9,30.27,NNW,340,2.0,3.0,83,0.00,,,0.00,0,Wunderground v.1.15,2013-01-30 19:25:00,
2013-01-30 20:31:00,50.8,46.1,30.27,East,84,2.0,2.0,84,0.00,,,0.00,0,Wunderground v.1.15,2013-01-30 19:31:00,
2013-01-30 20:40:00,50.8,46.1,30.27,West,261,2.0,3.0,84,0.00,,,0.00,0,Wunderground v.1.15,2013-01-30 19:40:00,
2013-01-30 20:45:00,50.7,46.0,30.27,SW,217,3.0,3.0,84,0.00,,,0.00,0,Wunderground v.1.15,2013-01-30 19:45:00,
2013-01-30 21:05:00,50.5,45.8,30.28,ENE,57,1.0,2.0,84,0.00,,,0.00,0,Wunderground v.1.15,2013-01-30 20:05:00,
2013-01-30 21:15:00,50.5,46.2,30.28,SSE,148,1.0,1.0,85,0.00,,,0.00,0,Wunderground v.1.15,2013-01-30 20:15:00,
2013-01-30 21:26:00,50.4,46.1,30.28,SSE,155,0.0,3.0,85,0.00,,,0.00,0,Wunderground v.1.15,2013-01-30 20:26:00,
2013-01-30 21:40:00,50.1,45.5,30.28,West,277,1.0,1.0,84,0.00,,,0.00,0,Wunderground v.1.15,2013-01-30 20:40:00,
2013-01-30 21:50:00,49.9,45.6,30.28,NNW,336,1.0,1.0,85,0.00,,,0.00,0,Wunderground v.1.15,2013-01-30 20:50:00,
2013-01-30 22:05:00,49.6,45.3,30.28,West,269,2.0,2.0,85,0.00,,,0.00,0,Wunderground v.1.15,2013-01-30 21:05:00,
2013-01-30 22:16:00,49.6,45.3,30.28,SSE,161,2.0,2.0,85,0.00,,,0.00,0,Wunderground v.1.15,2013-01-30 21:16:00,
2013-01-30 22:30:00,50.0,46.0,30.29,SE,140,2.0,2.0,86,0.00,,,0.00,0,Wunderground v.1.15,2013-01-30 21:30:00,
2013-01-30 22:40:00,50.3,46.3,30.29,ENE,58,1.0,1.0,86,0.00,,,0.00,0,Wunderground v.1.15,2013-01-30 21:40:00,
2013-01-30 22:55:00,50.5,46.5,30.29,NNW,338,1.0,4.0,86,0.00,,,0.00,0,Wunderground v.1.15,2013-01-30 21:55:00,
2013-01-30 23:11:00,50.8,46.8,30.29,WNW,292,2.0,2.0,86,0.00,,,0.00,0,Wunderground v.1.15,2013-01-30 22:11:00,
2013-01-30 23:20:00,51.2,46.8,30.29,SSW,205,2.0,3.0,85,0.00,,,0.00,0,Wunderground v.1.15,2013-01-30 22:20:00,
2013-01-30 23:26:00,51.5,47.1,30.29,NE,36,2.0,2.0,85,0.00,,,0.00,0,Wunderground v.1.15,2013-01-30 22:26:00,
2013-01-30 23:35:00,52.3,47.3,30.30,WSW,240,2.0,4.0,83,0.00,,,0.00,0,Wunderground v.1.15,2013-01-30 22:35:00,
2013-01-30 23:45:00,53.0,47.3,30.31,SW,236,2.0,2.0,81,0.00,,,0.00,0,Wunderground v.1.15,2013-01-30 22:45:00,